GSAT-10

Last updated on Tue Sep 22 2026 00:03:12 GMT+0000 (Coordinated Universal Time)

1 38779U 12051B 26264.62897172 -.00000169 00000+0 00000+0 0 9990 2 38779 0.0318 261.0177 0005367 214.1911 194.7703 1.00272903 51069
UTC large
Height (km)
Speed (km/s)
/
Latitude / Longitude
Inclination (degrees)
Orbital Period (minutes)
Azimuth
Elevation
Range (km)
Doppler Factor

Next 0 passes for location: London (51.5072 / 0.1276)

No passes found over London.
GSAT-10